www.pogodaiklimat.ru

Погода и климат >> Архив погоды >> Мьянма >> Ньянг-У


ПОГОДА в Ньянг-У

  • Прогноз погоды в Ньянг-У
  • Монитор погоды в Ньянг-У

АРХИВ ПОГОДЫ в Ньянг-У

Время (UTC), дата Ветер
(напр.,м/с)
 
Видим.   Явления Облачность Т
(С)
Тd
(С)
f
(%)
Тe
(С)
Тes
(С)
Комфортность P
(гПа)
Po
(гПа)
Тmin
(С)
Tmax
(С)
R
(мм)
R24
(мм)
S
(см)
03 16.09 ЮЗ 1 7000 м 3/3 600 м
[Cu Sc]
+31.7 +24.8 67 +45 +54 опасность
перегрева
1007.7 1001.5
06 16.09 ЮЗ 1 10 км 4/3 600 м
[Cu Sc Ci fib]
+35.0 +26.6 62 +52 +68 опасность
перегрева
1006.3 1000.2
09 16.09 ЮЗ 2 10 км 8/6 600 м
[Cb cap Ac und]
+34.0 +24.0 56 +46 +48 опасность
перегрева
1003.3 997.2
12 16.09 ЮВ 1 6000 м 1/1 600 м
[Sc]
+33.2 +25.8 65 +48 +48 опасность
перегрева
1002.4 996.3 +36.8
00 17.09 штиль 0 5000 м 3/3 600 м
[Cu Sc]
+26.6 +25.6 94 +39 +39 очень
душно
1007.3 1001.0 +26.1
03 17.09 СЗ 1 7000 м 3/3 600 м
[Cu Sc]
+30.4 +25.3 74 +44 +54 опасность
перегрева
1009.2 1003.0
06 17.09 СЗ 1 9000 м 5/5 600 м
[Cu Sc]
+34.4 +25.7 61 +50 +61 опасность
перегрева
1008.1 1002.0
09 17.09 СВ 1 10 км 6/5 600 м
[Cb cap Ac und]
+37.5 +24.0 46 +49 +53 опасность
перегрева
1004.9 998.8
12 17.09 штиль 0 6000 м 4/4 600 м
[Cu Sc]
+33.6 +25.7 63 +48 +48 опасность
перегрева
1004.8 998.7 +38.0
00 18.09 ЮЗ 1 5000 м 3/3 600 м
[Cu Sc]
+26.5 +24.6 89 +37 +37 очень
душно
1008.8 1002.5 +26.0
03 18.09 ЮЗ 1 7000 м 1/1 600 м
[Sc]
+31.5 +24.8 68 +45 +57 опасность
перегрева
1010.6 1004.4
06 18.09 СВ 1 10 км 3/3 600 м
[Cu Sc]
+35.1 +24.0 53 +47 +63 опасность
перегрева
1009.2 1003.1
09 18.09 СЗ 1 10 км 5/4 600 м
[Cu Sc Ac und]
+37.5 +24.0 46 +49 +54 опасность
перегрева
1006.2 1000.1
12 18.09 СВ 1 5000 м 9/6 600 м
[Cb cap Ac und]
+32.0 +24.8 66 +45 +45 опасность
перегрева
1007.6 1001.4 +38.0
00 19.09 ЮЗ 1 5000 м 8/6 600 м
[Cb cap Ac und]
+27.2 +25.6 91 +40 +40 очень
душно
1008.9 1002.6 +26.6
03 19.09 ЮЗ 1 7000 м 8/6 600 м
[Cb cap Ac und]
+31.1 +25.4 72 +45 +49 опасность
перегрева
1010.5 1004.3
06 19.09 СЗ 1 8000 м в посл. час гроза {морось} 5/5 600 м
[Cb cap]
+31.7 +26.5 74 +48 +60 опасность
перегрева
1009.7 1003.5
09 19.09 ЮЗ 1 8000 м 8/6 600 м
[Cb cap Ac und]
+29.6 +26.6 84 +46 +48 опасность
перегрева
1007.2 1001.0
12 19.09 Ю 1 5000 м 10/8 600 м
[Cb cap As op]
+28.3 +25.0 82 +41 +41 опасность
перегрева
1007.2 1000.9 +32.0 3
00 20.09 ЮЗ 1 5000 м 3/3 600 м
[Cu Sc]
+24.6 +23.3 92 +33 +33 очень
душно
1007.1 1000.8 +24.1 3
03 20.09 ЮЗ 1 7000 м ясно +30.5 +25.3 74 +44 +58 опасность
перегрева
1009.6 1003.4
06 20.09 СЗ 1 10 км 3/3 600 м
[Cu Sc]
+35.0 +23.7 52 +46 +62 опасность
перегрева
1008.3 1002.2
09 20.09 ЮЗ 1 10 км 5/4 600 м
[Cu Sc Ac und]
+35.5 +26.5 60 +52 +57 опасность
перегрева
1004.4 998.3
12 20.09 ЮЗ 1 6000 м 4/3 600 м
[Cu Sc Ci fib]
+31.3 +25.4 71 +46 +46 опасность
перегрева
1005.1 998.9 +36.5
00 21.09 ЮЗ 1 5000 м 6/5 600 м
[Cb cap Ac und]
+27.0 +25.6 92 +40 +40 очень
душно
1006.8 1000.5 +26.5
03 21.09 СЗ 1 7000 м 8/6 600 м
[Cb cap Ac und]
+29.4 +25.9 81 +44 +47 опасность
перегрева
1009.4 1003.1
06 21.09 С 1 9000 м 6/5 600 м
[Cb cap Ac und]
+34.4 +25.7 61 +50 +59 опасность
перегрева
1008.3 1002.2
09 21.09 штиль 0 7000 м в посл. час гроза {дождь} 10/8 300 м
[Cb cap As op]
+26.5 +26.0 97 +40 +40 очень
душно
1005.6 999.3
12 21.09 штиль 0 5000 м 8/6 600 м
[Cb cap Ac und]
+27.3 +25.6 90 +40 +40 очень
душно
1006.4 1000.1 +34.7 9
15 21.09 н/о
00 22.09 СЗ 1 5000 м слаб. морось {дождь} 10/8 300 м
[Cb cap As op]
+23.7 +22.6 94 +31 +31 очень
душно
1011.0 1004.6 +23.2 36
03 22.09 СЗ 1 7000 м 9/6 600 м
[Cb cap Ac und]
+25.5 +22.9 86 +34 +36 очень
душно
1012.6 1006.2
06 22.09 СВ 1 8000 м 8/6 600 м
[Cb cap Ac und]
+27.2 +24.0 83 +38 +43 очень
душно
1012.1 1005.8
09 22.09 СВ 1 10 км 3/3 600 м
[Cu Sc]
+31.0 +25.4 72 +45 +51 опасность
перегрева
1008.8 1002.6

 

Местоположение метеостанции Ньянг-У (Мьянма): широта 21.20 долгота 94.92 высота над уровнем моря 55 м.

В архиве по умолчанию представлена погода в Ньянг-У за последнюю неделю. Архивные данные за месяц целиком и за предыдущие месяцы, начиная с января 2011 года, Вы можете получить, выбрав интересующий диапазон дат из раскрывающегося списка и нажав кнопку "Ввод!".


*Определитесь, кто Вы:
робот инопланетянин человек

Внимание! Время в таблицах - всемирное. Для получения местного времени необходимо прибавить поправку, которая равна 6.5 ч.

Смотрите также архив погоды в соседних городах и на ближайших метеорологических станциях:

Погода в Чау (Мьянма) (37 км)
Погода в Моунъюа (Мьянма) (102 км)
Погода в Миндате (Мьянма) (103 км)
Погода в Мейтхиле (Мьянма) (103 км)
Погода в Минбу (Мьянма) (115 км)
Погода в Магуэе (Мьянма) (117 км)
Погода в Сикайне (Мьянма) (132 км)
Погода в Мандалае (Мьянма) (150 км)
Погода в Шуэбо (Мьянма) (174 км)
Погода в Мемьо (Мьянма) (184 км)

Пояснения к столбцам:

Ветер - указаны скорость ветра в м/с - средняя за 10 мин, порывы в срок и между сроками (в фигурных скобках) и направление, откуда дует ветер: С - северный, СВ - северо-восточный, В - восточный, ЮВ - юго-восточный, Ю - южный, ЮЗ - юго-западный, З - западный, СЗ - северо-западный.
Видимость - горизонтальная дальность видимости в метрах или километрах. При видимости от 1 до 10 км при отсутствии осадков обычно наблюдается дымка, при ухудшении видимости до 1 км и менее - туман. В сухую погоду видимость может ухудшаться дымом, пылью или мглою.
Явления - указаны атмосферные явления, наблюдавшиеся в срок или в последний час перед сроком; фигурными скобками обозначены явления, наблюдавшиеся между сроками (за 1-3 часа до срока); квадратными скобками обозначены град или гололедные отложения с указанием их диаметра в мм.
Облачность - указаны через наклонную черту общая и нижняя облачность в баллах и высота нижней границы облаков в метрах; квадратными скобками обозначены формы облаков: Ci - перистые, Cs - перисто-слоистые, Cc - перисто-кучевые, Ac - высококучевые, As - высокослоистые, Sc - слоисто-кучевые, Ns - слоисто-дождевые, Cu - кучевые, Cb - кучево-дождевые. Подробнее классификацию облаков см. в Атласе облаков (PDF).
T - Температура воздуха - температура, измеренная на высоте 2 м над землей.
Td - Температура точки росы - температура, при понижении до которой содержащийся в воздухе водяной пар достигнет насыщения.
f - Относительная влажность воздуха - влажноcть воздуха, измеренная на высоте 2 м над землей.
Te - Эффективная температура - температура, которую ощущает одетый по сезону человек в тени. Характеристика душности погоды. При расчете учитывается влияние влажности воздуха и скорости ветра на теплоощущения человека.
Tes - Эффективная температура на солнце - температура, которую ощущает человек, с поправкой на солнечный нагрев. Характеристика знойности погоды. Зависит от высоты солнца над горизонтом, облачности и скорости ветра. Ночью, в пасмурную погоду, а также при ветре 12 м/с и более поправка равна нулю.
P - Атмосферное давление - приведенное к уровню моря атмосферное давление.
Po - Атмосферное давление - измеренное на уровне метеостанции атмосферное давление.
Tmin - Минимальная температура - минимум температуры воздуха на высоте 2 м над землей.
Tmax - Максимальная температура - максимум температуры воздуха на высоте 2 м над землей.
R - Количество осадков - Количество выпавших осадков за период времени, мм. При наведении курсора мыши на число - период времени, за который выпало указанное количество осадков.
R24 - Количество осадков - Количество выпавших осадков за 24 часа, мм.
S - Снежный покров - Высота снежного покрова, см. При наведении курсора мыши на число - состояние снежного покрова и степень покрытия местности в баллах.